Location: Wells
(51.2093°N, 2.6446°W)
Time: 21:46:37
(UTC+01:00)

CUTE-I - Pass Details

Date: 20 March 2026
Orbit: 804 x 818 km, 98.7° (Epoch: 11 April)

Event Time Altitude Azimuth Distance (km) Brightness Sun altitude
Rises 19:26:09 0° 227° (SW) 3,316 ? -10.5°
Reaches altitude 10° 19:30:52 10° 265° (W) 2,390 ? -11.2°
Maximum altitude 19:31:56 11° 277° (W) 2,352 ? -11.4°
Drops below altitude 10° 19:32:59 10° 289° (WNW) 2,393 ? -11.6°
Sets 19:37:45 0° 328° (NNW) 3,330 ? -12.3°
